• In Uzbekistan
  • List of Countries
  • For 7 days
  • Water Temperature
  • Weather Map
  • Weather Widgets
  • user-avatar
    Login

    Hourly Weather Trashigang

    Today, 27 January, Monday

    Time Temperature Precipitation Wind Pressure Humidity
    00:00 +3°C° 0 mm 2 mps 622 mmHg 84%
    01:00 +3°C° 0 mm 2 mps 622 mmHg 82%
    02:00 +3°C° 0 mm 2 mps 622 mmHg 79%
    03:00 +3°C° 0 mm 2 mps 621 mmHg 77%
    04:00 +4°C° 0 mm 1 mps 621 mmHg 75%
    05:00 +4°C° 0 mm 1 mps 621 mmHg 73%
    06:00 +4°C° 0 mm 1 mps 621 mmHg 72%
    07:00 +6°C° 0 mm 1 mps 623 mmHg 64%
    08:00 +9°C° 0 mm 1 mps 624 mmHg 57%
    09:00 +10°C° 0 mm 0 mps 625 mmHg 50%
    10:00 +12°C° 0 mm 1 mps 625 mmHg 49%
    11:00 +13°C° 0 mm 2 mps 624 mmHg 49%
    12:00 +14°C° 0 mm 2 mps 624 mmHg 48%
    13:00 +13°C° 0.1 mm 2 mps 624 mmHg 52%
    14:00 +13°C° 0.1 mm 2 mps 623 mmHg 56%
    15:00 +13°C° 0.1 mm 2 mps 622 mmHg 59%
    16:00 +10°C° 0.1 mm 2 mps 622 mmHg 70%
    17:00 +9°C° 0.1 mm 1 mps 621 mmHg 81%
    18:00 +7°C° 0 mm 1 mps 621 mmHg 93%
    19:00 +6°C° 0 mm 0 mps 622 mmHg 93%
    20:00 +5°C° 0 mm 0 mps 622 mmHg 93%
    21:00 +5°C° 0 mm 0 mps 623 mmHg 93%
    22:00 +6°C° 0 mm 1 mps 623 mmHg 92%
    23:00 +5°C° 0 mm 1 mps 622 mmHg 91%

    Tomorrow, 28 January, Tuesday

    Time Temperature Precipitation Wind Pressure Humidity
    00:00 +5°C° 0 mm 1 mps 622 mmHg 90%
    01:00 +5°C° 0 mm 1 mps 622 mmHg 89%
    02:00 +5°C° 0 mm 1 mps 622 mmHg 88%
    03:00 +5°C° 0 mm 1 mps 622 mmHg 87%
    04:00 +5°C° 0 mm 1 mps 622 mmHg 86%
    05:00 +5°C° 0 mm 1 mps 622 mmHg 86%
    06:00 +5°C° 0 mm 1 mps 622 mmHg 85%
    07:00 +6°C° 0 mm 1 mps 623 mmHg 78%
    08:00 +8°C° 0 mm 1 mps 624 mmHg 71%
    09:00 +9°C° 0 mm 0 mps 625 mmHg 64%
    10:00 +11°C° 0.1 mm 1 mps 625 mmHg 61%
    11:00 +12°C° 0.1 mm 1 mps 625 mmHg 58%
    12:00 +13°C° 0.1 mm 2 mps 624 mmHg 55%
    13:00 +13°C° 0.1 mm 2 mps 624 mmHg 59%
    14:00 +12°C° 0.1 mm 2 mps 623 mmHg 63%
    15:00 +12°C° 0.1 mm 2 mps 623 mmHg 67%
    16:00 +9°C° 0.2 mm 2 mps 623 mmHg 77%
    17:00 +9°C° 0.2 mm 1 mps 623 mmHg 87%
    18:00 +7°C° 0.2 mm 1 mps 622 mmHg 97%
    19:00 +6°C° 0 mm 0 mps 623 mmHg 97%
    20:00 +6°C° 0 mm 0 mps 624 mmHg 96%
    21:00 +6°C° 0 mm 0 mps 624 mmHg 95%
    22:00 +7°C° 0 mm 1 mps 624 mmHg 93%
    23:00 +6°C° 0 mm 1 mps 625 mmHg 91%

    Day after tomorrow, 29 January, Wednesday

    Time Temperature Precipitation Wind Pressure Humidity
    00:00 +6°C° 0 mm 1 mps 625 mmHg 89%
    01:00 +6°C° 0 mm 1 mps 624 mmHg 88%
    02:00 +5°C° 0 mm 1 mps 624 mmHg 87%
    03:00 +5°C° 0 mm 1 mps 624 mmHg 86%
    04:00 +5°C° 0 mm 1 mps 624 mmHg 85%
    05:00 +4°C° 0 mm 1 mps 624 mmHg 83%
    06:00 +4°C° 0 mm 1 mps 624 mmHg 82%
    07:00 +7°C° 0 mm 1 mps 625 mmHg 74%
    08:00 +9°C° 0 mm 1 mps 627 mmHg 66%
    09:00 +11°C° 0 mm 0 mps 628 mmHg 59%
    10:00 +12°C° 0 mm 1 mps 628 mmHg 57%
    11:00 +13°C° 0 mm 2 mps 628 mmHg 55%
    12:00 +14°C° 0 mm 2 mps 628 mmHg 54%
    13:00 +14°C° 0.1 mm 2 mps 627 mmHg 57%
    14:00 +13°C° 0.1 mm 2 mps 626 mmHg 61%
    15:00 +13°C° 0.1 mm 2 mps 625 mmHg 65%
    16:00 +10°C° 0.1 mm 2 mps 625 mmHg 74%
    17:00 +10°C° 0.1 mm 1 mps 624 mmHg 84%
    18:00 +7°C° 0.1 mm 0 mps 624 mmHg 94%
    19:00 +7°C° 0 mm 0 mps 625 mmHg 94%
    20:00 +7°C° 0 mm 0 mps 625 mmHg 93%
    21:00 +7°C° 0 mm 0 mps 626 mmHg 93%
    22:00 +6°C° 0 mm 0 mps 626 mmHg 92%
    23:00 +7°C° 0 mm 1 mps 626 mmHg 90%

    30 January, Thursday

    Time Temperature Precipitation Wind Pressure Humidity
    00:00 +6°C° 0 mm 1 mps 625 mmHg 89%
    01:00 +6°C° 0 mm 1 mps 625 mmHg 87%
    02:00 +6°C° 0 mm 1 mps 625 mmHg 86%
    03:00 +6°C° 0 mm 1 mps 624 mmHg 84%
    04:00 +6°C° 0 mm 1 mps 624 mmHg 84%
    05:00 +6°C° 0 mm 1 mps 624 mmHg 83%
    06:00 +6°C° 0 mm 1 mps 625 mmHg 82%
    07:00 +8°C° 0 mm 1 mps 625 mmHg 76%
    08:00 +8°C° 0 mm 0 mps 626 mmHg 70%
    09:00 +10°C° 0 mm 0 mps 627 mmHg 64%
    10:00 +12°C° 0.1 mm 1 mps 627 mmHg 62%
    11:00 +13°C° 0.1 mm 1 mps 627 mmHg 59%
    12:00 +14°C° 0.1 mm 2 mps 626 mmHg 57%
    13:00 +14°C° 0.1 mm 2 mps 625 mmHg 59%
    14:00 +13°C° 0.1 mm 2 mps 625 mmHg 60%
    15:00 +13°C° 0.1 mm 2 mps 624 mmHg 62%
    16:00 +10°C° 0.2 mm 2 mps 623 mmHg 73%
    17:00 +9°C° 0.2 mm 1 mps 623 mmHg 83%
    18:00 +7°C° 0.2 mm 1 mps 622 mmHg 94%
    19:00 +7°C° 0.1 mm 1 mps 623 mmHg 92%
    20:00 +7°C° 0.1 mm 1 mps 624 mmHg 89%
    21:00 +6°C° 0.1 mm 1 mps 624 mmHg 87%
    22:00 +6°C° 0 mm 1 mps 624 mmHg 85%
    23:00 +6°C° 0 mm 1 mps 624 mmHg 83%

    31 January, Friday

    Time Temperature Precipitation Wind Pressure Humidity
    00:00 +5°C° 0 mm 1 mps 624 mmHg 80%
    01:00 +5°C° 0 mm 1 mps 624 mmHg 79%
    02:00 +4°C° 0 mm 1 mps 623 mmHg 78%
    03:00 +4°C° 0 mm 1 mps 623 mmHg 77%
    04:00 +4°C° 0 mm 1 mps 623 mmHg 77%
    05:00 +3°C° 0 mm 2 mps 623 mmHg 76%
    06:00 +2°C° 0 mm 2 mps 623 mmHg 76%
    07:00 +6°C° 0 mm 1 mps 624 mmHg 69%
    08:00 +8°C° 0 mm 1 mps 625 mmHg 62%
    09:00 +10°C° 0 mm 0 mps 626 mmHg 54%
    10:00 +12°C° 0 mm 1 mps 626 mmHg 54%
    11:00 +12°C° 0 mm 1 mps 625 mmHg 53%
    12:00 +13°C° 0 mm 2 mps 625 mmHg 53%
    13:00 +13°C° 0.1 mm 2 mps 625 mmHg 57%
    14:00 +13°C° 0.1 mm 2 mps 624 mmHg 62%
    15:00 +12°C° 0.1 mm 2 mps 624 mmHg 66%
    16:00 +10°C° 0.1 mm 2 mps 623 mmHg 76%
    17:00 +9°C° 0.1 mm 1 mps 623 mmHg 86%
    18:00 +7°C° 0.1 mm 1 mps 622 mmHg 96%
    19:00 +7°C° 0 mm 1 mps 623 mmHg 95%
    20:00 +7°C° 0 mm 1 mps 624 mmHg 94%
    21:00 +6°C° 0 mm 1 mps 624 mmHg 93%
    22:00 +6°C° 0 mm 1 mps 624 mmHg 92%
    23:00 +6°C° 0 mm 1 mps 624 mmHg 90%

    1 February, Saturday

    Time Temperature Precipitation Wind Pressure Humidity
    00:00 +6°C° 0 mm 1 mps 624 mmHg 88%
    01:00 +6°C° 0 mm 1 mps 624 mmHg 87%
    02:00 +6°C° 0 mm 1 mps 624 mmHg 86%
    03:00 +6°C° 0 mm 1 mps 624 mmHg 84%
    04:00 +6°C° 0 mm 1 mps 624 mmHg 84%
    05:00 +5°C° 0 mm 1 mps 624 mmHg 83%
    06:00 +5°C° 0 mm 1 mps 624 mmHg 83%
    07:00 +7°C° 0 mm 1 mps 625 mmHg 76%
    08:00 +8°C° 0 mm 0 mps 626 mmHg 70%
    09:00 +10°C° 0 mm 0 mps 627 mmHg 63%
    10:00 +12°C° 0 mm 1 mps 627 mmHg 59%
    11:00 +13°C° 0 mm 2 mps 627 mmHg 55%
    12:00 +14°C° 0 mm 2 mps 627 mmHg 51%
    13:00 +13°C° 0.2 mm 2 mps 626 mmHg 57%
    14:00 +13°C° 0.2 mm 2 mps 625 mmHg 63%
    15:00 +11°C° 0.2 mm 3 mps 625 mmHg 68%
    16:00 +10°C° 0.3 mm 2 mps 624 mmHg 78%
    17:00 +9°C° 0.3 mm 1 mps 624 mmHg 87%
    18:00 +7°C° 0.3 mm 1 mps 624 mmHg 97%
    19:00 +7°C° 0.4 mm 1 mps 624 mmHg 96%
    20:00 +6°C° 0.4 mm 0 mps 625 mmHg 95%
    21:00 +6°C° 0.4 mm 0 mps 625 mmHg 94%
    22:00 +6°C° 0.7 mm 0 mps 625 mmHg 94%
    23:00 +6°C° 0.7 mm 0 mps 625 mmHg 94%
    Show more